This is the latest recevied weather packets stored in our database for station/object JG6YPS-13. If no packets are shown the sender has not sent any weather packets the latest 10 day(s).
| Time | Temp. | Humidity | Pressure | Rain* | Wind** | Luminosity | Snow |
|---|---|---|---|---|---|---|---|
| 1777700439 | 28.33° C | 35% | 1012.3 hPa | 0 mm | - | - | - |
| 1777699839 | 28.89° C | 34% | 1012.3 hPa | 0 mm | - | - | - |
| 1777699238 | 30° C | 32% | 1012.3 hPa | 0 mm | - | - | - |
| 1777698638 | 30° C | 33% | 1012.4 hPa | 0 mm | - | - | - |
| 1777698037 | 30° C | 32% | 1012.4 hPa | 0 mm | - | - | - |
| 1777697436 | 29.44° C | 36% | 1012.5 hPa | 0 mm | - | - | - |
| 1777696836 | 28.89° C | 36% | 1012.7 hPa | 0 mm | - | - | - |
| 1777696235 | 29.44° C | 36% | 1012.9 hPa | 0 mm | - | - | - |
| 1777695635 | 27.78° C | 41% | 1013 hPa | 0 mm | - | - | - |
| 1777695034 | 27.78° C | 43% | 1013.1 hPa | 0 mm | - | - | - |
| 1777694434 | 27.22° C | 43% | 1013.2 hPa | 0 mm | - | - | - |
| 1777693833 | 26.67° C | 44% | 1013.3 hPa | 0 mm | - | - | - |
| 1777693233 | 27.22° C | 44% | 1013.5 hPa | 0 mm | - | - | - |
| 1777692632 | 28.33° C | 45% | 1013.7 hPa | 0 mm | - | - | - |
| 1777692031 | 26.67° C | 41% | 1013.7 hPa | 0 mm | - | - | - |
| 1777691431 | 25.56° C | 44% | 1013.8 hPa | 0 mm | - | - | - |
| 1777690831 | 25.56° C | 50% | 1013.9 hPa | 0 mm | - | - | - |
| 1777690230 | 25.56° C | 45% | 1014 hPa | 0 mm | - | - | - |
| 1777689629 | 26.11° C | 42% | 1014.1 hPa | 0 mm | - | - | - |
| 1777689029 | 24.44° C | 46% | 1014.3 hPa | 0 mm | - | - | - |
| 1777688428 | 25° C | 44% | 1014.2 hPa | 0 mm | - | - | - |
| 1777687828 | 24.44° C | 44% | 1014.3 hPa | 0 mm | - | - | - |
| 1777687228 | 26.11° C | 46% | 1014.5 hPa | 0 mm | - | - | - |
| 1777686627 | 25.56° C | 49% | 1014.6 hPa | 0 mm | - | - | - |
| 1777686027 | 24.44° C | 50% | 1014.8 hPa | 0 mm | - | - | - |
* Rain latest hour (hover to see other rain measurements)
** Current wind speed in m/s (hover to see current wind gust speed)